This is the latest recevied weather packets stored in our database for station/object DB0WUN-13. If no packets are shown the sender has not sent any weather packets the latest 1 day(s).
| Time | Temp. | Humidity | Pressure | Rain* | Wind** | Luminosity | Snow |
|---|---|---|---|---|---|---|---|
| 1778026744 | 11.11° C | 92% | 1007.8 hPa | 0 mm | 1.79 m/s, 235° | 0 W/m² | - |
| 1778026678 | 11.11° C | 92% | 1007.8 hPa | 0 mm | 1.79 m/s, 219° | 0 W/m² | - |
| 1778026617 | 11.11° C | 92% | 1007.9 hPa | 0 mm | 1.79 m/s, 248° | 0 W/m² | - |
| 1778026562 | 11.11° C | 92% | 1007.8 hPa | 0 mm | 1.79 m/s, 222° | 0 W/m² | - |
| 1778026495 | 11.11° C | 92% | 1007.8 hPa | 0 mm | 1.79 m/s, 229° | 0 W/m² | - |
| 1778026439 | 11.11° C | 92% | 1007.8 hPa | 0 mm | 1.34 m/s, 217° | 0 W/m² | - |
| 1778026375 | 11.11° C | 92% | 1007.9 hPa | 0 mm | 1.34 m/s, 217° | 0 W/m² | - |
| 1778026326 | 11.11° C | 92% | 1007.8 hPa | 0 mm | 1.34 m/s, 213° | 0 W/m² | - |
| 1778026274 | 11.11° C | 92% | 1007.9 hPa | 0 mm | 0.89 m/s, 212° | 0 W/m² | - |
| 1778026217 | 11.11° C | 92% | 1007.8 hPa | 0 mm | 0.89 m/s, 217° | 0 W/m² | - |
| 1778026184 | 11.11° C | 92% | 1007.8 hPa | 0 mm | 0.89 m/s, 233° | 0 W/m² | - |
| 1778026147 | 11.11° C | 92% | 1007.8 hPa | 0 mm | 0.89 m/s, 216° | 0 W/m² | - |
| 1778026114 | 11.11° C | 92% | 1007.8 hPa | 0 mm | 0.89 m/s, 216° | 0 W/m² | - |
| 1778025945 | 11.11° C | 92% | 1007.8 hPa | 0 mm | 0.45 m/s, 217° | 0 W/m² | - |
| 1778025884 | 11.11° C | 92% | 1007.8 hPa | 0 mm | 0.45 m/s, 217° | 0 W/m² | - |
| 1778025828 | 11.11° C | 92% | 1007.7 hPa | 0 mm | 0.45 m/s, 217° | 0 W/m² | - |
| 1778025768 | 11.11° C | 92% | 1007.8 hPa | 0 mm | 0.45 m/s, 216° | 0 W/m² | - |
| 1778025701 | 11.11° C | 92% | 1007.8 hPa | 0 mm | 0.45 m/s, 219° | 0 W/m² | - |
| 1778025639 | 11.11° C | 92% | 1007.8 hPa | 0 mm | 0.45 m/s, 223° | 0 W/m² | - |
| 1778025577 | 11.11° C | 92% | 1007.8 hPa | 0 mm | 0.45 m/s, 223° | 0 W/m² | - |
| 1778025518 | 11.11° C | 92% | 1007.8 hPa | 0 mm | 0.89 m/s, 223° | 0 W/m² | - |
| 1778025455 | 11.11° C | 92% | 1007.9 hPa | 0 mm | 0.89 m/s, 223° | 0 W/m² | - |
| 1778025399 | 11.11° C | 92% | 1007.9 hPa | 0 mm | 0.89 m/s, 224° | 0 W/m² | - |
| 1778025334 | 11.11° C | 92% | 1007.7 hPa | 0 mm | 0.89 m/s, 229° | 0 W/m² | - |
| 1778025276 | 11.11° C | 92% | 1007.8 hPa | 0 mm | 0.89 m/s, 227° | 0 W/m² | - |
* Rain latest hour (hover to see other rain measurements)
** Current wind speed in m/s (hover to see current wind gust speed)